Frenchville, ME

5:58 PM EDT on September 19, 2017 (GMT -0400)
Northern Aroostook Regional

Weather History for KFVE - September, 2013

Change the Weather History Date:

Sunday, September 22, 2013

  Actual Average Record
Temperature  
Mean Temperature 56 °F 51 °F  
Max Temperature 65 °F 60 °F 72 °F (2010)
Min Temperature 46 °F 42 °F 30 °F (1997)
Degree Days  
Heating Degree Days 9    
Month to date heating degree days 196  
Since 1 July heating degree days 359  
Cooling Degree Days 0    
Month to date cooling degree days 4  
Year to date cooling degree days 139  
Growing Degree Days 5 (Base 50)    
Moisture  
Dew Point 56 °F    
Average Humidity 91    
Maximum Humidity 100    
Minimum Humidity 77    
Precipitation  
Precipitation 0.62 in 0.13 in 0.62 in (2013)
Month to date precipitation 3.36 2.66  
Year to date precipitation 27.87 24.72  
Sea Level Pressure  
Sea Level Pressure 29.58 in    
Wind  
Wind Speed 11 mph (SSW)    
Max Wind Speed 25 mph    
Max Gust Speed 33 mph    
Visibility 7 miles    
Events Rain    
T = Trace of Precipitation, MM = Missing Value Source: NWS Daily Summary

Daily Weather History Graph

Daily Weather History Graph

Search for Another Location

Airport or City:

Trip Planner

Search our weather history database for the weather conditions in past years. The results will help you decide how hot, cold, wet, or windy it might be!

Date:

Astronomy

Sep. 22, 2013 Rise Set
Actual Time 6:20 AM EDT 6:30 PM EDT
Civil Twilight 5:49 AM EDT 7:01 PM EDT
Nautical Twilight 5:13 AM EDT 7:36 PM EDT
Astronomical Twilight 4:36 AM EDT 8:13 PM EDT
Moon 8:01 PM EDT (9/22) 9:52 AM EDT (9/22)
Length of Visible Light 13h 11m
Length of Day
12h 10m
Waning Gibbous, 89% of the Moon is Illuminated
Sep 22
Waning Gibbous
Sep 26
Last Quarter
Oct 4
New
Oct 11
First Quarter
Oct 18
Full

Hourly Weather History & Observations

Time (EDT) Temp. Windchill Dew Point Humidity Pressure Visibility Wind Dir Wind Speed Gust Speed Precip Events Conditions
12:04 AM 60.8 °F - 55.4 °F 82% 29.69 in 10.0 mi South 13.8 mph 24.2 mph N/A   Overcast
12:44 AM 60.8 °F - 55.4 °F 82% 29.68 in 10.0 mi South 16.1 mph 24.2 mph N/A   Overcast
12:53 AM 61.0 °F - 55.9 °F 83% 29.67 in 10.0 mi South 13.8 mph 24.2 mph N/A   Overcast
1:10 AM 60.8 °F - 55.4 °F 82% 29.67 in 10.0 mi South 11.5 mph 25.3 mph N/A   Overcast
1:53 AM 61.0 °F - 55.9 °F 83% 29.64 in 10.0 mi SSE 12.7 mph 20.7 mph N/A   Overcast
2:53 AM 61.0 °F - 57.0 °F 87% 29.61 in 10.0 mi SSE 16.1 mph 24.2 mph N/A   Overcast
3:40 AM 60.8 °F - 57.2 °F 88% 29.61 in 10.0 mi SSE 16.1 mph - N/A   Overcast
3:53 AM 62.1 °F - 57.0 °F 84% 29.59 in 10.0 mi SSE 16.1 mph 26.5 mph N/A   Overcast
4:53 AM 62.1 °F - 57.9 °F 86% 29.57 in 10.0 mi SSE 16.1 mph 25.3 mph N/A   Overcast
5:46 AM 60.8 °F - 57.2 °F 88% 29.57 in 10.0 mi SSE 19.6 mph 25.3 mph N/A   Overcast
5:53 AM 61.0 °F - 57.0 °F 87% 29.57 in 10.0 mi SSE 18.4 mph 27.6 mph N/A   Overcast
6:21 AM 60.8 °F - 57.2 °F 88% 29.57 in 10.0 mi SSE 19.6 mph 29.9 mph N/A   Overcast
6:53 AM 59.0 °F - 57.0 °F 93% 29.55 in 10.0 mi SSE 19.6 mph 28.8 mph N/A   Overcast
7:44 AM 59.0 °F - 57.2 °F 94% 29.54 in 8.0 mi SSE 20.7 mph 27.6 mph N/A   Overcast
7:53 AM 59.0 °F - 57.9 °F 96% 29.53 in 5.0 mi SSE 18.4 mph 27.6 mph N/A   Overcast
8:53 AM 61.0 °F - 60.1 °F 97% 29.55 in 5.0 mi South 8.1 mph 27.6 mph 0.04 in Rain Rain
9:18 AM 60.8 °F - 57.2 °F 88% 29.55 in 1.8 mi Variable 3.5 mph - 0.06 in Rain Heavy Rain
9:20 AM 60.8 °F - 57.2 °F 88% 29.55 in 1.5 mi WSW 5.8 mph - 0.06 in Rain Heavy Rain
9:29 AM 60.8 °F - 59.0 °F 94% 29.54 in 2.0 mi South 6.9 mph - 0.10 in Rain Rain
9:32 AM 60.8 °F - 59.0 °F 94% 29.54 in 3.0 mi SSW 6.9 mph - 0.10 in Rain Rain
9:45 AM 60.8 °F - 60.8 °F 100% 29.55 in 5.0 mi SSW 6.9 mph - 0.13 in Rain Rain
9:53 AM 61.0 °F - 60.1 °F 97% 29.55 in 5.0 mi SSW 4.6 mph - 0.14 in Rain Rain
10:01 AM 60.8 °F - 60.8 °F 100% 29.55 in 3.0 mi Calm Calm - 0.02 in Rain Rain
10:53 AM 60.1 °F - 59.0 °F 96% 29.54 in 1.8 mi South 4.6 mph - 0.17 in Rain Rain
10:56 AM 60.8 °F - 59.0 °F 94% 29.54 in 1.2 mi South 4.6 mph - 0.01 in Rain Rain
11:07 AM 60.8 °F - 60.8 °F 100% 29.54 in 1.8 mi South 3.5 mph - 0.03 in Rain Rain
11:17 AM 60.8 °F - 60.8 °F 100% 29.54 in 1.5 mi South 4.6 mph - 0.05 in Rain Light Rain
11:21 AM 60.8 °F - 60.8 °F 100% 29.54 in 2.0 mi SSE 5.8 mph - 0.05 in Rain Light Rain
11:33 AM 60.8 °F - 60.8 °F 100% 29.54 in 3.0 mi SSE 5.8 mph - 0.06 in Rain Light Rain
11:53 AM 60.1 °F - 59.0 °F 96% 29.51 in 4.0 mi SSE 3.5 mph - 0.10 in Rain Light Rain
12:06 PM 60.8 °F - 59.0 °F 94% 29.53 in 1.5 mi SSW 5.8 mph - 0.01 in Rain Rain
12:09 PM 60.8 °F - 59.0 °F 94% 29.53 in 0.8 mi South 4.6 mph - 0.02 in Rain Light Rain
12:33 PM 60.8 °F - 60.8 °F 100% 29.52 in 1.8 mi SSW 5.8 mph - 0.05 in Rain Light Rain
12:35 PM 60.8 °F - 60.8 °F 100% 29.53 in 3.0 mi SSW 5.8 mph - 0.05 in Rain Light Rain
12:53 PM 61.0 °F - 59.0 °F 93% 29.52 in 10.0 mi South 6.9 mph - 0.05 in Rain Light Rain
1:02 PM 60.8 °F - 59.0 °F 94% 29.53 in 10.0 mi SSW 4.6 mph - 0.00 in   Overcast
1:22 PM 60.8 °F - 59.0 °F 94% 29.53 in 10.0 mi WSW 4.6 mph - 0.00 in   Overcast
1:53 PM 60.1 °F - 57.9 °F 93% 29.53 in 10.0 mi SSW 6.9 mph - 0.00 in   Overcast
2:23 PM 62.6 °F - 57.2 °F 82% 29.54 in 10.0 mi Variable 5.8 mph - N/A   Overcast
2:53 PM 62.1 °F - 57.9 °F 86% 29.53 in 10.0 mi SSW 5.8 mph - N/A   Overcast
3:05 PM 62.6 °F - 57.2 °F 82% 29.53 in 10.0 mi Variable 4.6 mph - N/A   Mostly Cloudy
3:39 PM 64.4 °F - 57.2 °F 77% 29.54 in 10.0 mi South 5.8 mph - N/A   Mostly Cloudy
3:53 PM 63.0 °F - 57.9 °F 84% 29.53 in 10.0 mi South 5.8 mph - N/A   Overcast
4:07 PM 62.6 °F - 57.2 °F 82% 29.53 in 10.0 mi South 5.8 mph - N/A   Overcast
4:20 PM 62.6 °F - 59.0 °F 88% 29.54 in 1.8 mi West 12.7 mph - 0.11 in Rain Rain
4:27 PM 60.8 °F - 57.2 °F 88% 29.55 in 1.5 mi WNW 10.4 mph 19.6 mph 0.11 in Rain Light Rain
4:29 PM 62.6 °F - 57.2 °F 82% 29.55 in 3.0 mi WNW 10.4 mph 19.6 mph 0.11 in Rain Light Rain
4:53 PM 59.0 °F - 55.9 °F 90% 29.55 in 10.0 mi NNW 11.5 mph 20.7 mph 0.12 in   Mostly Cloudy
5:14 PM 55.4 °F - 53.6 °F 94% 29.57 in 10.0 mi NNW 13.8 mph - N/A   Overcast
5:53 PM 54.0 °F - 52.0 °F 93% 29.59 in 10.0 mi NNW 12.7 mph 19.6 mph N/A   Overcast
6:29 PM 53.6 °F - 51.8 °F 94% 29.60 in 10.0 mi NNW 12.7 mph - N/A   Mostly Cloudy
6:49 PM 51.8 °F - 50.0 °F 94% 29.60 in 10.0 mi NNW 10.4 mph - N/A   Partly Cloudy
6:53 PM 52.0 °F - 50.0 °F 93% 29.60 in 10.0 mi NNW 10.4 mph - N/A   Partly Cloudy
7:53 PM 50.0 °F - 48.9 °F 96% 29.63 in 10.0 mi NNW 6.9 mph - N/A   Scattered Clouds
8:53 PM 48.9 °F - 45.0 °F 86% 29.62 in 10.0 mi NNW 20.7 mph 27.6 mph N/A   Mostly Cloudy
9:19 PM 48.2 °F - 44.6 °F 87% 29.64 in 10.0 mi NW 11.5 mph - N/A   Overcast
9:34 PM 48.2 °F - 44.6 °F 87% 29.66 in 10.0 mi WNW 8.1 mph - N/A   Overcast
9:53 PM 48.0 °F - 45.0 °F 89% 29.67 in 10.0 mi NNW 10.4 mph - N/A   Overcast
10:53 PM 46.9 °F - 44.1 °F 90% 29.68 in 10.0 mi NNW 11.5 mph 19.6 mph N/A   Overcast
11:01 PM 46.4 °F 39.8 °F 44.6 °F 93% 29.67 in 10.0 mi NNW 16.1 mph 20.7 mph N/A   Overcast
11:34 PM 46.4 °F 40.7 °F 42.8 °F 87% 29.68 in 10.0 mi NW 12.7 mph - N/A   Overcast
11:53 PM 46.0 °F 39.6 °F 43.0 °F 89% 29.68 in 10.0 mi NNW 15.0 mph - N/A   Overcast